Skip Page Navigation
NASA JPL Caltech
NASA Logo - Jet Propulsion Laboratory + View the NASA Portal
+ Near-Earth Object (NEO) Program
Search JPL
JPL Home Earth Solar System Stars & Galaxies Technology
JPL Solar System Dynamics
BODIES ORBITS EPHEMERIDES TOOLS PHYSICAL DATA DISCOVERY FAQ SITE MAP
JPL Small-Body Database Browser
Search: [ help ]  
212756 (2007 TY16)
Classification: Main-belt Asteroid          SPK-ID: 2212756
Ephemeris | Orbit Diagram | Orbital Elements | Physical Parameters | Discovery Circumstances ]

[ hide orbit diagram ]
Orbit Diagram
Note: Make sure you have Java enabled on your browser to see the applet. This applet is provided as a 3D orbit visualization tool. The applet was implemented using 2-body methods, and hence should not be used for determining accurate long-term trajectories (over several years or decades) or planetary encounter circumstances. For accurate long-term ephemerides, please instead use our Horizons system.
Orbit Viewer

Additional Notes: the orbits shown in the applet are color coded. The planets are white lines, and the asteroid/comet is a blue line. The bright white line indicates the portion of the orbit that is above the ecliptic plane, and the darker portion is below the ecliptic plane. Likewise for the asteroid/comet orbit, the light blue indicates the portion above the ecliptic plane, and the dark blue the portion below the ecliptic plane.

Orbit Viewer applet originally written and kindly provided by Osamu Ajiki (AstroArts), and further modified by Ron Baalke (JPL).


Orbital Elements at Epoch 2456400.5 (2013-Apr-18.0) TDB
Reference: MPO217690 (heliocentric ecliptic J2000)
 Element Value Uncertainty (1-sigma)   Units 
e 0.0981540 n/a  
a 2.3753964 n/a AU
q 2.1422417 n/a AU
i 2.52202 n/a deg
node 12.45139 n/a deg
peri 73.95620 n/a deg
M 131.02636 n/a deg
tp 2455913.8028975
(2011-Dec-18.30289750)
n/a JED
period 1337.2191436
3.66
n/a
n/a
d
yr
n 0.26921541 n/a deg/d
Q 2.6085511 n/a AU
  Orbit Determination Parameters
   # obs. used (total)      89  
   first obs. used      1996-??-??  
   last obs. used      2011-12-25  
   # oppositions      6  
   planetary ephem.      DE403  
   condition code      0  
   fit RMS      0.46  
   data source      MPC:mpu  
   producer      MPCLINUX  

Additional Information
 T_jup = 3.534 

Ephemeris | Orbit Diagram | Orbital Elements | Physical Parameters | Discovery Circumstances ]

Physical Parameter Table
Parameter Symbol Value Units Sigma Reference Notes
absolute magnitude H 17.6 mag n/a MPO217690  

212756 (2007 TY16)          Discovered 2007-Oct-07 by Calvin College at Calvin-Rehoboth (G98)
Reference: 20090409/Numbers.arcLast Updated: 2009-04-10

Alternate Designations
 2007 TY16 = 2005 CP34 
Ephemeris | Orbit Diagram | Orbital Elements | Physical Parameters | Discovery Circumstances ]
ABOUT SSD CREDITS/AWARDS PRIVACY/COPYRIGHT GLOSSARY LINKS
FirstGov 2013-May-18 17:49 UT
(server date/time)  
NASA Home Page
Site Manager:   Donald K. Yeomans
Webmaster  Alan B. Chamberlin